Time,TemperatureF,DewpointF,PressureIn,WindDirection,WindDirectionDegrees,WindSpeedMPH,WindSpeedGustMPH,Humidity,HourlyPrecipIn,Conditions,Clouds,dailyrainin,SoftwareType,DateUTC
2013-01-02 00:07:00,65.7,61.0,30.04,SSE,163,0.0,-999.0,84,-99.99,,,0.00,weatherlink.com 1.10,2013-01-02 05:07:00,
2013-01-02 00:22:00,65.1,61.0,30.04,SSE,163,0.0,-999.0,86,-99.99,,,0.00,weatherlink.com 1.10,2013-01-02 05:22:00,
2013-01-02 00:37:00,64.0,60.0,30.04,SSE,163,0.0,-999.0,86,-99.99,,,0.00,weatherlink.com 1.10,2013-01-02 05:37:00,
2013-01-02 00:52:00,63.7,60.0,30.03,SSE,163,0.0,-999.0,88,-99.99,,,0.00,weatherlink.com 1.10,2013-01-02 05:52:00,
2013-01-02 01:07:00,63.2,60.0,30.03,SSE,163,0.0,-999.0,89,-99.99,,,0.00,weatherlink.com 1.10,2013-01-02 06:07:00,
2013-01-02 01:22:00,62.7,60.0,30.03,SSE,163,0.0,-999.0,89,-99.99,,,0.00,weatherlink.com 1.10,2013-01-02 06:22:00,
2013-01-02 01:37:00,62.4,60.0,30.02,SSE,163,0.0,-999.0,91,-99.99,,,0.00,weatherlink.com 1.10,2013-01-02 06:37:00,
2013-01-02 01:52:00,63.0,61.0,30.03,SSE,163,0.0,-999.0,92,-99.99,,,0.00,weatherlink.com 1.10,2013-01-02 06:52:00,
2013-01-02 02:07:00,62.7,60.0,30.02,SSE,163,0.0,-999.0,92,-99.99,,,0.00,weatherlink.com 1.10,2013-01-02 07:07:00,
2013-01-02 02:22:00,62.2,60.0,30.03,SSE,163,0.0,-999.0,92,-99.99,,,0.00,weatherlink.com 1.10,2013-01-02 07:22:00,
2013-01-02 02:37:00,62.1,60.0,30.03,SSE,163,0.0,-999.0,93,-99.99,,,0.00,weatherlink.com 1.10,2013-01-02 07:37:00,
2013-01-02 02:52:00,62.1,60.0,30.03,SSE,163,0.0,-999.0,93,-99.99,,,0.00,weatherlink.com 1.10,2013-01-02 07:52:00,
2013-01-02 03:07:00,61.8,60.0,30.02,SSE,163,0.0,-999.0,93,-99.99,,,0.00,weatherlink.com 1.10,2013-01-02 08:07:00,
2013-01-02 03:22:00,61.5,60.0,30.03,SSE,163,0.0,-999.0,94,-99.99,,,0.00,weatherlink.com 1.10,2013-01-02 08:22:00,
2013-01-02 03:37:00,62.5,61.0,30.03,SSE,163,0.0,-999.0,94,-99.99,,,0.00,weatherlink.com 1.10,2013-01-02 08:37:00,
2013-01-02 03:52:00,62.4,61.0,30.03,SSE,163,0.0,-999.0,94,-99.99,,,0.00,weatherlink.com 1.10,2013-01-02 08:52:00,
2013-01-02 04:07:00,62.8,61.0,30.03,WSW,253,0.0,-999.0,94,-99.99,,,0.00,weatherlink.com 1.10,2013-01-02 09:07:00,
2013-01-02 04:22:00,63.2,62.0,30.03,WSW,253,0.0,-999.0,94,-99.99,,,0.00,weatherlink.com 1.10,2013-01-02 09:22:00,
2013-01-02 04:37:00,63.2,62.0,30.03,WSW,252,0.0,-999.0,94,-99.99,,,0.00,weatherlink.com 1.10,2013-01-02 09:37:00,
2013-01-02 04:52:00,62.8,61.0,30.03,WSW,252,0.0,-999.0,94,-99.99,,,0.00,weatherlink.com 1.10,2013-01-02 09:52:00,
2013-01-02 05:07:00,62.3,61.0,30.03,WSW,253,0.0,-999.0,94,-99.99,,,0.00,weatherlink.com 1.10,2013-01-02 10:07:00,
2013-01-02 05:22:00,62.0,60.0,30.03,WSW,252,0.0,-999.0,94,-99.99,,,0.00,weatherlink.com 1.10,2013-01-02 10:22:00,
2013-01-02 05:37:00,61.9,60.0,30.04,WSW,252,0.0,-999.0,94,-99.99,,,0.00,weatherlink.com 1.10,2013-01-02 10:37:00,
2013-01-02 05:52:00,61.9,61.0,30.04,WSW,252,0.0,-999.0,95,-99.99,,,0.00,weatherlink.com 1.10,2013-01-02 10:52:00,
2013-01-02 06:07:00,61.7,60.0,30.04,WSW,252,0.0,-999.0,95,-99.99,,,0.00,weatherlink.com 1.10,2013-01-02 11:07:00,
2013-01-02 06:22:00,61.6,60.0,30.05,WSW,253,0.0,-999.0,95,-99.99,,,0.00,weatherlink.com 1.10,2013-01-02 11:22:00,
2013-01-02 06:37:00,60.8,59.0,30.05,WSW,253,0.0,-999.0,95,-99.99,,,0.00,weatherlink.com 1.10,2013-01-02 11:37:00,
2013-01-02 06:52:00,60.9,60.0,30.05,WSW,252,0.0,-999.0,96,-99.99,,,0.00,weatherlink.com 1.10,2013-01-02 11:52:00,
2013-01-02 07:07:00,60.8,59.0,30.05,WSW,253,0.0,-999.0,95,-99.99,,,0.00,weatherlink.com 1.10,2013-01-02 12:07:00,
2013-01-02 07:22:00,61.2,60.0,30.05,WSW,253,0.0,-999.0,96,-99.99,,,0.00,weatherlink.com 1.10,2013-01-02 12:22:00,
2013-01-02 07:37:00,61.5,60.0,30.06,WSW,253,0.0,-999.0,96,-99.99,,,0.00,weatherlink.com 1.10,2013-01-02 12:37:00,
2013-01-02 07:52:00,63.3,62.0,30.06,WSW,252,0.0,-999.0,96,-99.99,,,0.00,weatherlink.com 1.10,2013-01-02 12:52:00,
2013-01-02 08:07:00,65.2,64.0,30.07,WSW,253,0.0,-999.0,97,-99.99,,,0.00,weatherlink.com 1.10,2013-01-02 13:07:00,
2013-01-02 08:22:00,66.0,65.0,30.07,WSW,252,0.0,-999.0,95,-99.99,,,0.00,weatherlink.com 1.10,2013-01-02 13:22:00,
2013-01-02 08:37:00,67.6,65.0,30.07,WSW,253,0.0,-999.0,92,-99.99,,,0.00,weatherlink.com 1.10,2013-01-02 13:37:00,
2013-01-02 08:53:00,69.6,66.0,30.07,WSW,252,0.0,-999.0,89,-99.99,,,0.00,weatherlink.com 1.10,2013-01-02 13:53:00,
2013-01-02 09:08:00,71.9,67.0,30.07,SSE,159,0.0,-999.0,84,-99.99,,,0.00,weatherlink.com 1.10,2013-01-02 14:08:00,
2013-01-02 09:23:00,74.4,67.0,30.07,SSE,164,1.0,-999.0,78,-99.99,,,0.00,weatherlink.com 1.10,2013-01-02 14:23:00,
2013-01-02 09:38:00,75.8,67.0,30.08,SSE,166,1.0,-999.0,75,-99.99,,,0.00,weatherlink.com 1.10,2013-01-02 14:38:00,
2013-01-02 09:53:00,77.4,69.0,30.08,SSW,203,0.0,-999.0,74,-99.99,,,0.00,weatherlink.com 1.10,2013-01-02 14:53:00,
2013-01-02 10:08:00,77.3,68.0,30.08,SSE,167,4.0,-999.0,72,-99.99,,,0.00,weatherlink.com 1.10,2013-01-02 15:08:00,
2013-01-02 10:23:00,77.2,68.0,30.08,SW,214,0.0,-999.0,73,-99.99,,,0.00,weatherlink.com 1.10,2013-01-02 15:23:00,
2013-01-02 10:38:00,77.1,67.0,30.08,SSW,199,1.0,-999.0,70,-99.99,,,0.00,weatherlink.com 1.10,2013-01-02 15:38:00,
2013-01-02 10:53:00,77.5,68.0,30.07,SE,136,0.0,-999.0,72,-99.99,,,0.00,weatherlink.com 1.10,2013-01-02 15:53:00,
2013-01-02 11:08:00,79.7,68.0,30.07,SW,214,2.0,-999.0,67,-99.99,,,0.00,weatherlink.com 1.10,2013-01-02 16:08:00,
2013-01-02 11:23:00,80.1,67.0,30.07,WNW,290,0.0,-999.0,65,-99.99,,,0.00,weatherlink.com 1.10,2013-01-02 16:23:00,
2013-01-02 11:38:00,79.4,66.0,30.06,South,179,2.0,-999.0,64,-99.99,,,0.00,weatherlink.com 1.10,2013-01-02 16:38:00,
2013-01-02 11:53:00,80.7,65.0,30.05,WSW,253,0.0,-999.0,60,-99.99,,,0.00,weatherlink.com 1.10,2013-01-02 16:53:00,
2013-01-02 12:08:00,80.7,63.0,30.04,NW,321,3.0,-999.0,56,-99.99,,,0.00,weatherlink.com 1.10,2013-01-02 17:08:00,
2013-01-02 12:23:00,79.8,64.0,30.03,SW,214,2.0,-999.0,59,-99.99,,,0.00,weatherlink.com 1.10,2013-01-02 17:23:00,
2013-01-02 12:38:00,78.8,65.0,30.03,NW,306,2.0,-999.0,62,-99.99,,,0.00,weatherlink.com 1.10,2013-01-02 17:38:00,
2013-01-02 12:53:00,79.7,65.0,30.02,WNW,291,1.0,-999.0,61,-99.99,,,0.00,weatherlink.com 1.10,2013-01-02 17:53:00,
2013-01-02 13:08:00,79.8,63.0,30.01,WNW,291,1.0,-999.0,57,-99.99,,,0.00,weatherlink.com 1.10,2013-01-02 18:08:00,
2013-01-02 13:23:00,80.6,64.0,30.00,NW,304,2.0,-999.0,57,-99.99,,,0.00,weatherlink.com 1.10,2013-01-02 18:23:00,
2013-01-02 13:38:00,80.8,65.0,30.00,WSW,237,2.0,-999.0,58,-99.99,,,0.00,weatherlink.com 1.10,2013-01-02 18:38:00,
2013-01-02 13:53:00,81.6,64.0,29.99,SSW,211,2.0,-999.0,55,-99.99,,,0.00,weatherlink.com 1.10,2013-01-02 18:53:00,
2013-01-02 14:08:00,82.4,65.0,29.99,SSW,210,0.0,-999.0,56,-99.99,,,0.00,weatherlink.com 1.10,2013-01-02 19:08:00,
2013-01-02 14:23:00,82.9,66.0,29.99,WSW,237,3.0,-999.0,56,-99.99,,,0.00,weatherlink.com 1.10,2013-01-02 19:23:00,
2013-01-02 14:38:00,81.7,64.0,29.98,WNW,285,0.0,-999.0,56,-99.99,,,0.00,weatherlink.com 1.10,2013-01-02 19:38:00,
2013-01-02 14:53:00,82.9,65.0,29.98,SW,230,0.0,-999.0,55,-99.99,,,0.00,weatherlink.com 1.10,2013-01-02 19:53:00,
2013-01-02 15:08:00,83.4,64.0,29.98,SW,236,1.0,-999.0,53,-99.99,,,0.00,weatherlink.com 1.10,2013-01-02 20:08:00,
2013-01-02 15:23:00,82.7,65.0,29.98,WSW,248,0.0,-999.0,55,-99.99,,,0.00,weatherlink.com 1.10,2013-01-02 20:23:00,
2013-01-02 15:38:00,82.9,64.0,29.98,SSW,213,0.0,-999.0,54,-99.99,,,0.00,weatherlink.com 1.10,2013-01-02 20:38:00,
2013-01-02 15:53:00,83.3,64.0,29.98,SW,222,0.0,-999.0,52,-99.99,,,0.00,weatherlink.com 1.10,2013-01-02 20:53:00,
2013-01-02 16:08:00,82.7,64.0,29.98,SSW,202,0.0,-999.0,54,-99.99,,,0.00,weatherlink.com 1.10,2013-01-02 21:08:00,
2013-01-02 16:23:00,81.9,64.0,29.98,SW,223,0.0,-999.0,55,-99.99,,,0.00,weatherlink.com 1.10,2013-01-02 21:23:00,
2013-01-02 16:38:00,80.9,64.0,29.98,SW,217,0.0,-999.0,56,-99.99,,,0.00,weatherlink.com 1.10,2013-01-02 21:38:00,
2013-01-02 16:53:00,80.2,63.0,29.99,WNW,288,0.0,-999.0,57,-99.99,,,0.00,weatherlink.com 1.10,2013-01-02 21:53:00,
2013-01-02 17:08:00,78.9,67.0,29.99,SE,141,2.0,-999.0,67,-99.99,,,0.00,weatherlink.com 1.10,2013-01-02 22:08:00,
2013-01-02 17:23:00,77.2,67.0,30.00,ESE,123,5.0,-999.0,71,-99.99,,,0.00,weatherlink.com 1.10,2013-01-02 22:23:00,
2013-01-02 17:39:00,76.1,67.0,30.00,SSE,148,2.0,-999.0,74,-99.99,,,0.00,weatherlink.com 1.10,2013-01-02 22:39:00,
2013-01-02 17:54:00,75.4,67.0,30.00,South,172,0.0,-999.0,76,-99.99,,,0.00,weatherlink.com 1.10,2013-01-02 22:54:00,
2013-01-02 18:09:00,74.9,68.0,30.00,SSE,150,1.0,-999.0,78,-99.99,,,0.00,weatherlink.com 1.10,2013-01-02 23:09:00,
2013-01-02 18:24:00,74.5,68.0,30.00,SSE,150,1.0,-999.0,79,-99.99,,,0.00,weatherlink.com 1.10,2013-01-02 23:24:00,
2013-01-02 18:39:00,74.1,68.0,30.01,SSW,198,2.0,-999.0,80,-99.99,,,0.00,weatherlink.com 1.10,2013-01-02 23:39:00,
2013-01-02 18:54:00,73.7,68.0,30.01,SSE,150,1.0,-999.0,81,-99.99,,,0.00,weatherlink.com 1.10,2013-01-02 23:54:00,
2013-01-02 19:09:00,73.3,68.0,30.02,SSE,152,1.0,-999.0,82,-99.99,,,0.00,weatherlink.com 1.10,2013-01-03 00:09:00,
2013-01-02 19:24:00,73.0,68.0,30.02,SSW,196,1.0,-999.0,83,-99.99,,,0.00,weatherlink.com 1.10,2013-01-03 00:24:00,
2013-01-02 19:39:00,73.1,68.0,30.03,SSE,150,4.0,-999.0,84,-99.99,,,0.00,weatherlink.com 1.10,2013-01-03 00:39:00,
2013-01-02 19:54:00,73.5,68.0,30.03,SSE,167,2.0,-999.0,83,-99.99,,,0.00,weatherlink.com 1.10,2013-01-03 00:54:00,
2013-01-02 20:09:00,73.4,68.0,30.03,South,170,2.0,-999.0,83,-99.99,,,0.00,weatherlink.com 1.10,2013-01-03 01:09:00,
2013-01-02 20:24:00,72.9,68.0,30.03,SSE,166,0.0,-999.0,83,-99.99,,,0.00,weatherlink.com 1.10,2013-01-03 01:24:00,
2013-01-02 20:39:00,72.3,67.0,30.04,SSE,166,1.0,-999.0,84,-99.99,,,0.00,weatherlink.com 1.10,2013-01-03 01:39:00,
2013-01-02 20:54:00,72.0,67.0,30.04,South,180,0.0,-999.0,84,-99.99,,,0.00,weatherlink.com 1.10,2013-01-03 01:54:00,
2013-01-02 21:09:00,71.5,67.0,30.04,SSE,159,0.0,-999.0,85,-99.99,,,0.00,weatherlink.com 1.10,2013-01-03 02:09:00,
2013-01-02 21:24:00,70.9,67.0,30.04,South,169,0.0,-999.0,86,-99.99,,,0.00,weatherlink.com 1.10,2013-01-03 02:24:00,
2013-01-02 21:39:00,70.6,67.0,30.04,South,170,1.0,-999.0,87,-99.99,,,0.00,weatherlink.com 1.10,2013-01-03 02:39:00,
2013-01-02 21:54:00,70.5,67.0,30.05,South,179,0.0,-999.0,88,-99.99,,,0.00,weatherlink.com 1.10,2013-01-03 02:54:00,
2013-01-02 22:09:00,70.3,67.0,30.05,South,176,0.0,-999.0,88,-99.99,,,0.00,weatherlink.com 1.10,2013-01-03 03:09:00,
2013-01-02 22:24:00,70.1,67.0,30.04,SSE,163,1.0,-999.0,89,-99.99,,,0.00,weatherlink.com 1.10,2013-01-03 03:24:00,
2013-01-02 22:54:00,71.3,68.0,30.05,SSW,194,0.0,-999.0,89,-99.99,,,0.00,weatherlink.com 1.10,2013-01-03 03:54:00,
2013-01-02 23:09:00,71.3,68.0,30.05,South,190,0.0,-999.0,88,-99.99,,,0.00,weatherlink.com 1.10,2013-01-03 04:09:00,
2013-01-02 23:24:00,70.8,68.0,30.05,South,190,0.0,-999.0,89,-99.99,,,0.00,weatherlink.com 1.10,2013-01-03 04:24:00,
2013-01-02 23:39:00,70.3,67.0,30.05,SSW,194,0.0,-999.0,90,-99.99,,,0.00,weatherlink.com 1.10,2013-01-03 04:39:00,
2013-01-02 23:54:00,69.9,67.0,30.05,SW,217,0.0,-999.0,91,-99.99,,,0.00,weatherlink.com 1.10,2013-01-03 04:54:00,